Date String (YYYY-MM-DD hh:mm:ss) UTC,Instrument flags,Ambient pressure (hPa),Sample flow (lpm),Bypass flow (lpm),Sample temperature (°C),Ambient temperature (°C),ASC tube jacket temperature (°C),LED temperature (°C),Box temperature (°C),Sample RH (%),Span deviation,Mass concentration (μg/m³),Mass concentration (μg/m³),Mass concentration (μg/m³)
DateTimeUTC,F1_M11,P_M11,Q1_M11,Q2_M11,T1_M11,T2_M11,T3_M11,T4_M11,T5_M11,U1_M11,ZSPAN_M11,X0_M11,X2_M11,X1_M11
2022-04-14 21:00:00,,0819.0,5.00,0.00,23.2,22.3,00.0,32.1,24.9,07.5,0000.0,0011.19,0004.06,0002.75
2022-04-14 21:01:00,,0819.0,5.00,0.00,23.1,22.3,00.0,32.1,24.9,07.5,0000.0,0010.58,0004.03,0002.75
2022-04-14 21:02:00,,0819.0,5.00,0.00,23.1,22.3,00.0,32.1,24.9,07.4,0000.0,0010.40,0004.01,0002.73
2022-04-14 21:03:00,,0819.1,4.99,0.00,23.1,22.3,00.0,32.1,24.9,07.7,0000.0,0010.43,0004.03,0002.76
2022-04-14 21:04:00,,0819.0,4.99,0.00,23.1,22.2,00.0,32.1,24.9,07.7,0000.0,0011.33,0004.03,0002.75
2022-04-14 21:05:00,,0819.0,5.00,0.00,23.2,22.2,00.0,32.1,24.9,07.7,0000.0,0011.57,0004.02,0002.76
2022-04-14 21:06:00,,0819.0,5.02,0.00,23.2,22.2,00.0,32.1,25.0,07.4,0000.0,0011.52,0004.03,0002.74
2022-04-14 21:07:00,,0819.0,4.99,0.00,23.2,22.3,00.0,32.1,25.0,07.5,0000.0,0011.38,0003.99,0002.73
2022-04-14 21:08:00,,0819.1,5.00,0.00,23.2,22.2,00.0,32.1,25.0,07.5,0000.0,0010.77,0003.98,0002.73
2022-04-14 21:09:00,,0819.2,5.02,0.00,23.2,22.2,00.0,32.1,24.9,07.7,0000.0,0011.05,0003.91,0002.72
2022-04-14 21:10:00,,0819.2,4.99,0.00,23.2,22.3,00.0,32.1,24.9,07.9,0000.0,0009.90,0003.83,0002.72
2022-04-14 21:11:00,,0819.3,5.00,0.00,23.2,22.3,00.0,32.1,24.9,07.7,0000.0,0010.05,0003.83,0002.73
2022-04-14 21:12:00,,0819.1,5.01,0.00,23.2,22.2,00.0,32.1,24.9,07.8,0000.0,0010.21,0003.87,0002.74
2022-04-14 21:13:00,,0819.1,5.00,0.00,23.2,22.2,00.0,32.1,24.9,08.0,0000.0,0010.58,0003.97,0002.77
2022-04-14 21:14:00,,0819.1,5.00,0.00,23.2,22.2,00.0,32.1,24.9,08.0,0000.0,0010.66,0003.97,0002.77
2022-04-14 21:15:00,,0819.1,4.99,0.00,23.2,22.2,00.0,32.1,24.9,08.0,0000.0,0009.90,0003.96,0002.77
2022-04-14 21:16:00,,0819.0,5.01,0.00,23.2,22.3,00.0,32.2,25.0,07.8,0000.0,0009.88,0004.00,0002.78
2022-04-14 21:17:00,,0819.0,4.99,0.00,23.2,22.3,00.0,32.2,25.0,07.8,0000.0,0010.17,0004.03,0002.79
2022-04-14 21:18:00,,0819.0,5.01,0.00,23.2,22.3,00.0,32.2,25.0,07.6,0000.0,0010.81,0004.05,0002.79
2022-04-14 21:19:00,,0819.0,5.00,0.00,23.2,22.3,00.0,32.2,25.0,07.9,0000.0,0011.27,0004.02,0002.79
2022-04-14 21:20:00,,0819.0,5.00,0.00,23.3,22.3,00.0,32.2,25.1,08.0,0000.0,0010.51,0004.01,0002.78
2022-04-14 21:21:00,,0819.0,5.00,0.00,23.3,22.3,00.0,32.2,25.0,07.9,0000.0,0010.69,0004.04,0002.77
2022-04-14 21:22:00,,0819.0,5.00,0.00,23.3,22.3,00.0,32.2,25.0,07.8,0000.0,0010.40,0004.04,0002.75
2022-04-14 21:23:00,,0819.1,5.00,0.00,23.2,22.3,00.0,32.2,25.0,07.7,0000.0,0010.32,0004.04,0002.76
2022-04-14 21:24:00,,0819.1,4.99,0.00,23.2,22.3,00.0,32.2,25.0,07.6,0000.0,0010.04,0003.94,0002.73
2022-04-14 21:25:00,,0819.1,5.00,0.00,23.2,22.3,00.0,32.2,25.0,07.6,0000.0,0010.02,0003.93,0002.71
2022-04-14 21:26:00,,0819.1,5.00,0.00,23.3,22.3,00.0,32.2,25.0,07.7,0000.0,0009.89,0003.89,0002.69
2022-04-14 21:27:00,,0819.1,5.00,0.00,23.3,22.3,00.0,32.2,25.0,07.5,0000.0,0009.77,0003.88,0002.68
2022-04-14 21:28:00,,0819.2,5.01,0.00,23.3,22.3,00.0,32.2,25.0,07.5,0000.0,0009.55,0003.85,0002.66
2022-04-14 21:29:00,,0819.2,5.00,0.00,23.3,22.2,00.0,32.2,25.0,07.6,0000.0,0009.18,0003.82,0002.66
2022-04-14 21:30:00,,0819.2,4.98,0.00,23.3,22.2,00.0,32.2,25.0,07.8,0000.0,0008.41,0003.84,0002.66
2022-04-14 21:31:00,,0819.2,5.02,0.00,23.3,22.2,00.0,32.2,25.0,07.7,0000.0,0008.62,0003.85,0002.65
2022-04-14 21:32:00,,0819.1,4.99,0.00,23.3,22.3,00.0,32.2,25.1,08.1,0000.0,0009.04,0003.82,0002.65
2022-04-14 21:33:00,,0819.2,5.01,0.00,23.3,22.3,00.0,32.2,25.1,07.9,0000.0,0008.86,0003.79,0002.65
2022-04-14 21:34:00,,0819.2,4.99,0.00,23.3,22.3,00.0,32.2,25.1,07.9,0000.0,0008.80,0003.77,0002.62
2022-04-14 21:35:00,,0819.2,5.00,0.00,23.4,22.4,00.0,32.3,25.2,08.1,0000.0,0008.78,0003.77,0002.63
2022-04-14 21:36:00,,0819.2,5.01,0.00,23.4,22.4,00.0,32.3,25.1,08.1,0000.0,0008.60,0003.75,0002.62
2022-04-14 21:37:00,,0819.3,5.00,0.00,23.4,22.4,00.0,32.3,25.2,08.2,0000.0,0008.45,0003.72,0002.62
2022-04-14 21:38:00,,0819.2,5.01,0.00,23.4,22.5,00.0,32.3,25.2,08.0,0000.0,0008.36,0003.70,0002.62
2022-04-14 21:39:00,,0819.2,5.00,0.00,23.4,22.5,00.0,32.3,25.2,07.6,0000.0,0008.19,0003.68,0002.63
2022-04-14 21:40:00,,0819.3,5.01,0.00,23.4,22.5,00.0,32.3,25.2,07.2,0000.0,0008.18,0003.71,0002.64
2022-04-14 21:41:00,,0819.2,4.99,0.00,23.5,22.5,00.0,32.3,25.3,07.5,0000.0,0008.11,0003.71,0002.64
2022-04-14 21:42:00,,0819.1,5.01,0.00,23.5,22.5,00.0,32.3,25.3,07.6,0000.0,0007.79,0003.70,0002.65
2022-04-14 21:43:00,,0819.1,4.99,0.00,23.5,22.5,00.0,32.3,25.3,07.9,0000.0,0007.28,0003.71,0002.65
2022-04-14 21:44:00,,0819.1,5.02,0.00,23.5,22.5,00.0,32.3,25.3,07.9,0000.0,0007.99,0003.72,0002.65
2022-04-14 21:45:00,,0819.2,4.99,0.00,23.5,22.6,00.0,32.4,25.3,08.0,0000.0,0008.25,0003.70,0002.66
2022-04-14 21:46:00,,0819.2,5.00,0.00,23.5,22.6,00.0,32.4,25.3,07.9,0000.0,0008.30,0003.71,0002.64
2022-04-14 21:47:00,,0819.2,5.01,0.00,23.5,22.6,00.0,32.4,25.3,08.1,0000.0,0008.36,0003.74,0002.64
2022-04-14 21:48:00,,0819.2,5.00,0.00,23.6,22.6,00.0,32.4,25.4,08.1,0000.0,0008.43,0003.78,0002.67
2022-04-14 21:49:00,,0819.2,4.99,0.00,23.6,22.7,00.0,32.4,25.4,08.2,0000.0,0008.51,0003.80,0002.67
2022-04-14 21:50:00,,0819.2,5.00,0.00,23.6,22.7,00.0,32.4,25.4,08.1,0000.0,0008.67,0003.84,0002.67
2022-04-14 21:51:00,,0819.2,5.00,0.00,23.6,22.7,00.0,32.4,25.4,07.7,0000.0,0008.87,0003.89,0002.68
2022-04-14 21:52:00,,0819.2,5.01,0.00,23.6,22.7,00.0,32.4,25.5,07.5,0000.0,0008.83,0003.87,0002.68
2022-04-14 21:53:00,,0819.1,4.99,0.00,23.6,22.7,00.0,32.5,25.5,07.1,0000.0,0008.87,0003.88,0002.69
2022-04-14 21:54:00,,0819.1,4.99,0.00,23.6,22.7,00.0,32.5,25.4,07.3,0000.0,0008.86,0003.89,0002.69
2022-04-14 21:55:00,,0819.1,5.02,0.00,23.6,22.7,00.0,32.5,25.4,07.2,0000.0,0008.39,0003.90,0002.71
2022-04-14 21:56:00,,0819.1,4.99,0.00,23.6,22.7,00.0,32.5,25.4,07.5,0000.0,0008.34,0003.92,0002.72
2022-04-14 21:57:00,,0819.1,4.99,0.00,23.6,22.7,00.0,32.5,25.4,07.1,0000.0,0008.33,0003.92,0002.75
2022-04-14 21:58:00,,0819.1,5.01,0.00,23.6,22.8,00.0,32.5,25.5,07.0,0000.0,0008.38,0003.94,0002.75
2022-04-14 21:59:00,,0819.1,5.00,0.00,23.6,22.8,00.0,32.5,25.5,07.0,0000.0,0008.37,0003.93,0002.72
